Regional Weather Roundup
Issued by NWS Sioux Falls, SD

Home | Current Version | Previous Version | Text Only | Print | Product List | Glossary Off
Versions: 1 2 3 4 5 6 7 8 9 10 11 12 13 14 15 16 17 18 19 20 21 22 23 24 25 26 27 28 29 30 31 32 33 34 35 36 37 38 39 40 41 42 43 44 45 46 47 48 49 50

000
ASUS43 KFSD 290502
RWRFSD

WEATHER ROUNDUP FOR SE SOUTH DAKOTA/SW MINNESOTA/NW IOWA
NATIONAL WEATHER SERVICE SIOUX FALLS SD
1200 AM CDT WED MAR 29 2017

NOTE: "FAIR" INDICATES FEW OR NO CLOUDS BELOW 12,000 FEET WITH NO
SIGNIFICANT WEATHER AND OR OBSTRUCTIONS TO VISIBILITY.


SDZ038>040-050-052>070-290600-
SOUTHEAST SOUTH DAKOTA

CITY           SKY/WX    TMP DP  RH WIND       PRES   REMARKS
BROOKINGS      PTCLDY    43  36  76 E3        30.15S
CHAMBERLAIN    CLOUDY    47  43  86 NW6       30.14F
HURON          CLOUDY    44  39  82 E5        30.14S
MADISON        FAIR      39  39 100 E6        30.14F
MITCHELL       MOCLDY    47  37  68 E6        30.14S
SIOUX FALLS    CLOUDY    44  37  76 N5        30.13F
WINNER         CLOUDY    44  42  93 W5        30.13F
YANKTON        MOCLDY    48  39  71 E5        30.12R
$$

MNZ071-072-080-081-089-090-097-098-290600-
SOUTHWEST MINNESOTA

CITY           SKY/WX    TMP DP  RH WIND       PRES   REMARKS
FAIRMONT       PTCLDY    43  38  82 E6        30.16F
JACKSON        PTCLDY    41  36  81 E7        30.16R
LUVERNE        PTCLDY    41  34  75 NE5       30.14S
MARSHALL       CLOUDY    40  35  83 CALM      30.16F
MONTEVIDEO     CLOUDY    45  34  65 E5        30.17F
PIPESTONE      CLOUDY    39  32  75 CALM      30.14S
REDWOOD FALLS  CLOUDY    50  32  50 E6        30.16F
TRACY          CLOUDY    45  37  73 CALM      30.16F
WINDOM         CLOUDY    39  36  87 E5        30.15F
WORTHINGTON    CLOUDY    40  36  86 NE6       30.15F
$$

IAZ001>003-012>014-020>022-031-032-NEZ013-014-SDZ071-290600-
NORTHWEST IOWA

CITY           SKY/WX    TMP DP  RH WIND       PRES   REMARKS
CHEROKEE       CLOUDY    43  42  95 E5        30.14R
DENISON        CLOUDY    45  43  93 NE9       30.12F
ESTHERVILLE    CLOUDY    41  40  96 NE7       30.14F
LE MARS        CLOUDY    48  43  81 CALM      30.15R
ORANGE CITY    CLOUDY    46  43  87 CALM      30.14R
SHELDON        PTCLDY    43  39  87 NE6       30.12S
SIOUX CITY     CLOUDY    48  42  80 NE6       30.12S
SPENCER        CLOUDY    44  40  85 E6        30.14R
STORM LAKE     CLOUDY    43  41  93 E6        30.15R
$$

ABBREVIATIONS USED IN REMARKS
   TC - TEMPERATURE IN CELSIUS
  WCI - WIND CHILL INDEX
   HX - HEAT INDEX
  VSB - VISIBILITY




USA.gov is the U.S. government's official web portal to all federal, state and local government web resources and services.